Location: Poprad
(49.0500°N, 20.3000°E)
Time: 12:41:18
(UTC+02:00)

AO-73 - Pass Details

Date: 02 May 2024
Orbit: 559 x 625 km, 97.7° (Epoch: 29 May)

Event Time Altitude Azimuth Distance (km) Brightness Sun altitude
Rises 02:28:57 0° 31° (NNE) 2,925 ? -20.8°
Reaches altitude 10° 02:32:28 10° 61° (ENE) 2,009 ? -20.5°
Maximum altitude 02:34:21 13° 87° (E) 1,838 ? -20.3°
Drops below altitude 10° 02:36:13 10° 113° (ESE) 1,995 ? -20.2°
Enters shadow 02:38:48 - 137° (SE) 2,615 ? -20.0°
